Simultaneous Nadir Overpasses (SNOs) Predictions

Prediction of SNOs between AQUA and GOES-15 Satellite Orbit:

Table of predicted SNOs for the next 14.0 days since TLE Epoch: 6/8/2018
Index Date Time (AQUA) AQUA Lat,Lon GOES-15 Lat,Lon Distance(km) Time Diff (sec)
1 06/10/2018 10:32:17 -0.08,-134.08 -0.01,-134.52 49.94 80
2 06/12/2018 10:20:05 -0.70,-131.12 -0.01,-134.42 374.84 80
3 06/12/2018 22:41:30 -0.38,-136.32 0.03,-134.43 215.27 80
4 06/14/2018 22:29:18 0.25,-133.36 0.03,-134.31 108.65 80
5 06/15/2018 10:50:32 0.83,-138.52 -0.05,-134.25 484.87 80
6 06/16/2018 22:17:05 0.83,-130.39 0.03,-134.19 432.10 80
7 06/17/2018 10:38:19 0.26,-135.55 -0.05,-134.13 161.60 80
8 06/19/2018 10:26:07 -0.32,-132.58 -0.05,-134.00 161.47 80
9 06/19/2018 22:47:31 -0.75,-137.78 0.07,-134.00 429.60 80
10 06/21/2018 10:13:55 -0.96,-129.62 -0.04,-133.88 484.31 80
11 06/21/2018 22:35:19 -0.11,-134.82 0.06,-133.88 106.74 80




NCC Satellite Simultaneous Nadir Overpasses (SNOs) Prediction Service
